NKS112 KLAX-KPHX

Flight info

Callsign NKS112
Flight time 0h 57m
Altitude 37000
Route DOTSS2 CNERY BLH HYDRR1
Aircraft A20N/M-SDE2E3FGHIRWXY/LB1

Departure

Time 2026-05-04 01:02
Airport Los Angeles International Airport (KLAX)

Arrival

Time 2026-05-04 02:00
Airport Phoenix Sky Harbor International Airport (KPHX)
Time Latitude Longitude Altitude Speed Heading
2026-05-04 00:40 33.94036 -118.39905 126 ft 0 kts 355°
2026-05-04 00:48 33.94020 -118.39904 125 ft 2 kts
2026-05-04 00:49 33.94003 -118.39907 123 ft 2 kts 13°
2026-05-04 00:49 33.93988 -118.39913 125 ft 2 kts 29°
2026-05-04 00:49 33.93975 -118.39926 126 ft 2 kts 52°
2026-05-04 00:49 33.93968 -118.39943 124 ft 2 kts 72°
2026-05-04 00:50 33.93965 -118.39959 125 ft 1 kts 81°
2026-05-04 00:50 33.93964 -118.39962 125 ft 0 kts 81°
2026-05-04 00:54 33.93967 -118.39935 127 ft 7 kts 83°
2026-05-04 00:54 33.93976 -118.39855 129 ft 11 kts 83°
2026-05-04 00:54 33.93959 -118.39815 126 ft 7 kts 147°
2026-05-04 00:55 33.93911 -118.39763 126 ft 13 kts 117°
2026-05-04 00:55 33.93914 -118.39642 127 ft 17 kts 83°
2026-05-04 00:55 33.93929 -118.39503 127 ft 16 kts 83°
2026-05-04 00:55 33.93943 -118.39371 125 ft 15 kts 83°
2026-05-04 00:56 33.93957 -118.39233 128 ft 22 kts 83°
2026-05-04 00:56 33.93979 -118.39009 129 ft 31 kts 83°
2026-05-04 00:56 33.94006 -118.38750 129 ft 30 kts 83°
2026-05-04 00:56 33.94031 -118.38505 129 ft 29 kts 83°
2026-05-04 00:57 33.94055 -118.38276 124 ft 26 kts 83°
2026-05-04 00:57 33.94071 -118.38112 127 ft 15 kts 83°
2026-05-04 00:57 33.94073 -118.38095 129 ft 0 kts 83°
2026-05-04 00:58 33.94076 -118.38063 129 ft 5 kts 83°
2026-05-04 00:58 33.94076 -118.38029 129 ft 4 kts 105°
2026-05-04 00:59 33.94069 -118.38017 124 ft 1 kts 127°
2026-05-04 00:59 33.94069 -118.38016 125 ft 0 kts 129°
2026-05-04 01:00 33.94059 -118.38008 129 ft 6 kts 144°
2026-05-04 01:00 33.94006 -118.38002 126 ft 6 kts 204°
2026-05-04 01:00 33.93983 -118.38040 126 ft 8 kts 257°
2026-05-04 01:00 33.93979 -118.38082 129 ft 0 kts 263°
2026-05-04 01:01 33.93967 -118.38203 125 ft 42 kts 263°
2026-05-04 01:01 33.93904 -118.38814 129 ft 104 kts 263°
2026-05-04 01:01 33.93791 -118.39897 131 ft 154 kts 262°
2026-05-04 01:02 33.93662 -118.41073 567 ft 153 kts 262°
2026-05-04 01:02 33.93506 -118.42314 1245 ft 147 kts 260°
2026-05-04 01:02 33.93361 -118.43629 1706 ft 173 kts 263°
2026-05-04 01:02 33.93203 -118.45166 2076 ft 198 kts 259°
2026-05-04 01:03 33.92588 -118.46785 2385 ft 229 kts 236°
2026-05-04 01:03 33.91594 -118.48376 2980 ft 246 kts 232°
2026-05-04 01:03 33.90485 -118.49967 3855 ft 250 kts 231°
2026-05-04 01:03 33.89347 -118.51567 4585 ft 253 kts 230°
2026-05-04 01:04 33.88188 -118.53201 4941 ft 258 kts 230°
2026-05-04 01:04 33.87043 -118.54824 5008 ft 259 kts 230°
2026-05-04 01:04 33.85702 -118.56260 4999 ft 260 kts 206°
2026-05-04 01:04 33.83928 -118.56591 5004 ft 264 kts 172°
2026-05-04 01:05 33.82139 -118.56007 5011 ft 269 kts 165°
2026-05-04 01:05 33.80361 -118.55314 5005 ft 269 kts 165°
2026-05-04 01:05 33.78550 -118.54673 5300 ft 272 kts 167°
2026-05-04 01:05 33.77307 -118.54273 5815 ft 275 kts 168°
2026-05-04 01:06 33.74840 -118.53533 7091 ft 278 kts 169°
2026-05-04 01:06 33.73594 -118.53176 7774 ft 276 kts 170°
2026-05-04 01:06 33.71726 -118.52650 8764 ft 277 kts 170°
2026-05-04 01:06 33.69876 -118.51980 9697 ft 282 kts 154°
2026-05-04 01:07 33.68425 -118.50341 10456 ft 300 kts 125°
2026-05-04 01:07 33.67678 -118.47894 10907 ft 326 kts 106°
2026-05-04 01:07 33.67162 -118.45162 11379 ft 343 kts 107°
2026-05-04 01:07 33.66552 -118.42361 12127 ft 351 kts 109°
2026-05-04 01:08 33.65832 -118.39545 13066 ft 354 kts 111°
2026-05-04 01:08 33.65077 -118.36717 13968 ft 358 kts 112°
2026-05-04 01:08 33.64261 -118.33856 14481 ft 369 kts 110°
2026-05-04 01:08 33.64006 -118.30727 15002 ft 385 kts 91°
2026-05-04 01:09 33.64137 -118.27492 15555 ft 393 kts 90°
2026-05-04 01:09 33.64271 -118.24189 16102 ft 401 kts 91°
2026-05-04 01:09 33.64358 -118.20810 16644 ft 408 kts 92°
2026-05-04 01:09 33.64409 -118.17393 16945 ft 410 kts 92°
2026-05-04 01:10 33.64436 -118.13953 16993 ft 412 kts 93°
2026-05-04 01:10 33.64449 -118.10505 16999 ft 414 kts 93°
2026-05-04 01:10 33.64455 -118.07044 17002 ft 414 kts 93°
2026-05-04 01:10 33.64456 -118.03627 16997 ft 415 kts 93°
2026-05-04 01:11 33.64454 -118.00161 17000 ft 415 kts 94°
2026-05-04 01:11 33.64450 -117.96696 17000 ft 415 kts 94°
2026-05-04 01:11 33.64445 -117.93227 17025 ft 417 kts 94°
2026-05-04 01:11 33.64437 -117.89717 17395 ft 423 kts 94°
2026-05-04 01:12 33.64427 -117.86165 17954 ft 430 kts 94°
2026-05-04 01:12 33.64417 -117.82553 18459 ft 436 kts 94°
2026-05-04 01:12 33.64398 -117.78890 18947 ft 439 kts 98°
2026-05-04 01:12 33.63759 -117.75352 19445 ft 433 kts 113°
2026-05-04 01:13 33.62804 -117.71906 19958 ft 436 kts 115°
2026-05-04 01:13 33.61840 -117.68438 20491 ft 441 kts 114°
2026-05-04 01:13 33.60896 -117.64903 21007 ft 445 kts 113°
2026-05-04 01:13 33.59987 -117.61383 21515 ft 450 kts 113°
2026-05-04 01:14 33.59074 -117.57781 21996 ft 454 kts 112°
2026-05-04 01:14 33.58149 -117.54089 22503 ft 458 kts 112°
2026-05-04 01:14 33.57231 -117.50411 22982 ft 462 kts 112°
2026-05-04 01:14 33.56319 -117.46749 23421 ft 466 kts 112°
2026-05-04 01:15 33.55388 -117.43008 23849 ft 469 kts 112°
2026-05-04 01:15 33.54450 -117.39245 24212 ft 473 kts 112°
2026-05-04 01:15 33.53502 -117.35446 24526 ft 478 kts 112°
2026-05-04 01:15 33.52543 -117.31609 24841 ft 483 kts 112°
2026-05-04 01:16 33.51570 -117.27716 25194 ft 487 kts 112°
2026-05-04 01:16 33.50583 -117.23826 25534 ft 491 kts 112°
2026-05-04 01:16 33.50015 -117.19735 25852 ft 505 kts 95°
2026-05-04 01:16 33.50030 -117.15490 26144 ft 511 kts 91°
2026-05-04 01:17 33.50107 -117.11227 26564 ft 512 kts 92°
2026-05-04 01:17 33.50145 -117.06943 26885 ft 515 kts 92°
2026-05-04 01:17 33.50141 -117.02631 27190 ft 519 kts 93°
2026-05-04 01:17 33.50110 -116.98339 27486 ft 523 kts 94°
2026-05-04 01:18 33.50064 -116.93973 27790 ft 526 kts 94°
2026-05-04 01:18 33.50007 -116.89567 28079 ft 530 kts 94°
2026-05-04 01:18 33.49944 -116.85122 28335 ft 533 kts 94°
2026-05-04 01:18 33.49877 -116.80676 28733 ft 534 kts 94°
2026-05-04 01:19 33.49807 -116.76222 29016 ft 537 kts 94°
2026-05-04 01:19 33.49735 -116.71734 29246 ft 541 kts 94°
2026-05-04 01:19 33.49659 -116.67213 29508 ft 544 kts 94°
2026-05-04 01:19 33.49582 -116.62668 29768 ft 547 kts 94°
2026-05-04 01:20 33.49502 -116.58100 29961 ft 550 kts 94°
2026-05-04 01:20 33.49421 -116.53509 30186 ft 553 kts 94°
2026-05-04 01:20 33.49337 -116.48894 30443 ft 555 kts 94°
2026-05-04 01:20 33.49251 -116.44261 30705 ft 557 kts 94°
2026-05-04 01:21 33.49173 -116.39599 30975 ft 559 kts 94°
2026-05-04 01:21 33.49106 -116.34934 31217 ft 561 kts 94°
2026-05-04 01:21 33.49039 -116.30305 31438 ft 562 kts 94°
2026-05-04 01:21 33.48969 -116.25630 31779 ft 561 kts 94°
2026-05-04 01:22 33.48895 -116.20927 31832 ft 566 kts 94°
2026-05-04 01:22 33.48819 -116.16209 31985 ft 570 kts 94°
2026-05-04 01:22 33.48741 -116.11452 32219 ft 571 kts 94°
2026-05-04 01:22 33.48661 -116.06687 32495 ft 572 kts 94°
2026-05-04 01:23 33.48626 -116.01919 32703 ft 576 kts 86°
2026-05-04 01:23 33.49377 -115.97199 32890 ft 576 kts 69°
2026-05-04 01:23 33.50870 -115.92763 33141 ft 572 kts 61°
2026-05-04 01:23 33.52483 -115.88411 33502 ft 572 kts 62°
2026-05-04 01:24 33.54013 -115.83999 33716 ft 575 kts 64°
2026-05-04 01:24 33.55458 -115.79520 33918 ft 577 kts 66°
2026-05-04 01:24 33.56844 -115.75009 34178 ft 577 kts 66°
2026-05-04 01:24 33.58201 -115.70467 34434 ft 577 kts 67°
2026-05-04 01:25 33.59531 -115.65946 34689 ft 576 kts 67°
2026-05-04 01:25 33.60854 -115.61411 34957 ft 574 kts 67°
2026-05-04 01:25 33.62206 -115.56917 35275 ft 572 kts 70°
2026-05-04 01:25 33.62982 -115.52268 35418 ft 574 kts 88°
2026-05-04 01:26 33.62919 -115.47497 35581 ft 571 kts 99°
2026-05-04 01:26 33.62454 -115.42778 35805 ft 568 kts 102°
2026-05-04 01:26 33.61920 -115.38075 36052 ft 567 kts 102°
2026-05-04 01:26 33.61467 -115.33365 36290 ft 566 kts 99°
2026-05-04 01:27 33.61134 -115.28657 36458 ft 569 kts 97°
2026-05-04 01:27 33.60742 -115.19144 36704 ft 572 kts 95°
2026-05-04 01:28 33.60509 -115.09591 36745 ft 572 kts 94°
2026-05-04 01:28 33.60292 -115.00283 36729 ft 569 kts 94°
2026-05-04 01:29 33.60043 -114.90917 36742 ft 569 kts 94°
2026-05-04 01:29 33.59769 -114.81440 36405 ft 566 kts 95°
2026-05-04 01:29 33.59631 -114.76701 36162 ft 557 kts 96°
2026-05-04 01:30 33.59050 -114.72232 35848 ft 543 kts 109°
2026-05-04 01:30 33.58172 -114.67843 35494 ft 538 kts 110°
2026-05-04 01:30 33.57272 -114.63502 35116 ft 534 kts 110°
2026-05-04 01:30 33.56388 -114.59195 34737 ft 530 kts 109°
2026-05-04 01:31 33.55524 -114.54907 34360 ft 527 kts 109°
2026-05-04 01:31 33.54677 -114.50651 34004 ft 524 kts 109°
2026-05-04 01:31 33.53839 -114.46414 33619 ft 521 kts 108°
2026-05-04 01:31 33.53011 -114.42213 33284 ft 516 kts 108°
2026-05-04 01:32 33.52191 -114.38049 33021 ft 510 kts 108°
2026-05-04 01:32 33.51382 -114.33945 32761 ft 502 kts 108°
2026-05-04 01:32 33.50581 -114.29884 32447 ft 497 kts 108°
2026-05-04 01:32 33.49788 -114.25874 32138 ft 492 kts 108°
2026-05-04 01:33 33.49003 -114.21904 31821 ft 487 kts 108°
2026-05-04 01:33 33.48225 -114.17981 31530 ft 481 kts 108°
2026-05-04 01:33 33.47455 -114.14101 31237 ft 476 kts 108°
2026-05-04 01:33 33.46695 -114.10280 30960 ft 471 kts 108°
2026-05-04 01:34 33.45936 -114.06478 30671 ft 465 kts 108°
2026-05-04 01:34 33.45195 -114.02778 30417 ft 460 kts 108°
2026-05-04 01:34 33.44444 -113.99036 30138 ft 454 kts 108°
2026-05-04 01:34 33.43717 -113.95422 29886 ft 449 kts 108°
2026-05-04 01:35 33.42982 -113.91761 29579 ft 444 kts 108°
2026-05-04 01:35 33.42273 -113.88227 29208 ft 441 kts 108°
2026-05-04 01:35 33.41556 -113.84665 28852 ft 438 kts 109°
2026-05-04 01:35 33.40846 -113.81136 28506 ft 434 kts 108°
2026-05-04 01:36 33.40139 -113.77636 28075 ft 433 kts 108°
2026-05-04 01:36 33.39424 -113.74109 27365 ft 441 kts 108°
2026-05-04 01:36 33.38691 -113.70503 26589 ft 449 kts 108°
2026-05-04 01:36 33.37949 -113.66846 25861 ft 456 kts 107°
2026-05-04 01:37 33.37195 -113.63135 25117 ft 463 kts 107°
2026-05-04 01:37 33.36427 -113.59357 24352 ft 470 kts 107°
2026-05-04 01:37 33.35648 -113.55533 23567 ft 476 kts 107°
2026-05-04 01:37 33.34860 -113.51664 22675 ft 481 kts 107°
2026-05-04 01:38 33.34069 -113.47781 22113 ft 476 kts 107°
2026-05-04 01:38 33.33352 -113.43975 21916 ft 464 kts 105°
2026-05-04 01:38 33.32712 -113.40257 21772 ft 447 kts 105°
2026-05-04 01:38 33.32100 -113.36673 21678 ft 434 kts 105°
2026-05-04 01:39 33.31501 -113.33180 21493 ft 423 kts 105°
2026-05-04 01:39 33.30914 -113.29775 21320 ft 413 kts 105°
2026-05-04 01:39 33.30340 -113.26457 21130 ft 404 kts 105°
2026-05-04 01:39 33.29774 -113.23157 20479 ft 408 kts 104°
2026-05-04 01:40 33.29268 -113.19820 19704 ft 417 kts 103°
2026-05-04 01:40 33.28771 -113.16371 18906 ft 425 kts 103°
2026-05-04 01:40 33.28270 -113.12864 18264 ft 428 kts 103°
2026-05-04 01:40 33.27775 -113.09387 18040 ft 417 kts 103°
2026-05-04 01:41 33.27344 -113.06006 17811 ft 408 kts 95°
2026-05-04 01:41 33.27430 -113.02654 17615 ft 399 kts 90°
2026-05-04 01:41 33.27541 -112.99390 17443 ft 388 kts 90°
2026-05-04 01:41 33.27657 -112.96214 17234 ft 378 kts 90°
2026-05-04 01:42 33.27758 -112.93089 16876 ft 374 kts 91°
2026-05-04 01:42 33.27848 -112.90005 16430 ft 372 kts 91°
2026-05-04 01:42 33.27930 -112.86909 15820 ft 376 kts 91°
2026-05-04 01:42 33.28009 -112.83766 15195 ft 380 kts 91°
2026-05-04 01:43 33.28188 -112.80615 14581 ft 384 kts 87°
2026-05-04 01:43 33.28478 -112.77438 14168 ft 380 kts 86°
2026-05-04 01:43 33.28778 -112.74347 14038 ft 367 kts 86°
2026-05-04 01:43 33.29067 -112.71372 13929 ft 354 kts 86°
2026-05-04 01:44 33.29343 -112.68485 13762 ft 343 kts 87°
2026-05-04 01:44 33.29607 -112.65694 13608 ft 333 kts 87°
2026-05-04 01:44 33.29858 -112.63022 13449 ft 323 kts 87°
2026-05-04 01:44 33.30103 -112.60400 13299 ft 313 kts 87°
2026-05-04 01:45 33.30341 -112.57850 13151 ft 303 kts 87°
2026-05-04 01:45 33.30569 -112.55388 13032 ft 294 kts 87°
2026-05-04 01:45 33.31014 -112.50556 13021 ft 292 kts 88°
2026-05-04 01:46 33.31161 -112.48952 13010 ft 293 kts 88°
2026-05-04 01:46 33.31456 -112.45724 13017 ft 293 kts 88°
2026-05-04 01:46 33.31678 -112.43301 13014 ft 293 kts 88°
2026-05-04 01:46 33.31898 -112.40888 13016 ft 292 kts 88°
2026-05-04 01:47 33.32119 -112.38469 13018 ft 292 kts 88°
2026-05-04 01:47 33.32331 -112.36150 13018 ft 292 kts 88°
2026-05-04 01:47 33.32550 -112.33736 13018 ft 292 kts 88°
2026-05-04 01:47 33.32770 -112.31325 13019 ft 291 kts 88°
2026-05-04 01:48 33.32916 -112.29729 13015 ft 291 kts 88°
2026-05-04 01:48 33.33210 -112.26505 12703 ft 292 kts 88°
2026-05-04 01:48 33.33428 -112.24106 12406 ft 289 kts 88°
2026-05-04 01:48 33.33572 -112.22525 12184 ft 288 kts 88°
2026-05-04 01:49 33.33788 -112.20139 11748 ft 290 kts 88°
2026-05-04 01:49 33.34005 -112.17727 11293 ft 293 kts 88°
2026-05-04 01:49 33.34222 -112.15306 10862 ft 296 kts 88°
2026-05-04 01:49 33.34443 -112.12843 10401 ft 298 kts 88°
2026-05-04 01:50 33.34666 -112.10367 9905 ft 302 kts 87°
2026-05-04 01:50 33.34757 -112.07884 9389 ft 303 kts 94°
2026-05-04 01:50 33.34738 -112.05353 8842 ft 305 kts 94°
2026-05-04 01:50 33.34700 -112.02807 8296 ft 307 kts 94°
2026-05-04 01:51 33.34660 -112.00242 7767 ft 309 kts 94°
2026-05-04 01:51 33.34622 -111.97668 7224 ft 312 kts 95°
2026-05-04 01:51 33.34585 -111.95066 6709 ft 314 kts 94°
2026-05-04 01:51 33.34596 -111.92439 6184 ft 316 kts 92°
2026-05-04 01:52 33.34653 -111.89797 5659 ft 319 kts 91°
2026-05-04 01:52 33.34718 -111.87144 5107 ft 320 kts 91°
2026-05-04 01:52 33.34785 -111.84463 4560 ft 322 kts 91°
2026-05-04 01:52 33.34851 -111.81795 4154 ft 319 kts 91°
2026-05-04 01:53 33.34932 -111.79205 4033 ft 305 kts 89°
2026-05-04 01:53 33.35379 -111.76785 4017 ft 293 kts 71°
2026-05-04 01:53 33.36382 -111.74745 4021 ft 278 kts 48°
2026-05-04 01:53 33.37815 -111.73306 3998 ft 265 kts 23°
2026-05-04 01:54 33.39567 -111.72959 4024 ft 254 kts 348°
2026-05-04 01:54 33.41162 -111.73694 4021 ft 241 kts 312°
2026-05-04 01:54 33.42105 -111.75251 4024 ft 227 kts 287°
2026-05-04 01:54 33.42566 -111.76953 4037 ft 207 kts 278°
2026-05-04 01:55 33.42813 -111.78584 4023 ft 195 kts 269°
2026-05-04 01:55 33.42858 -111.80216 4014 ft 199 kts 264°
2026-05-04 01:55 33.42868 -111.81850 3980 ft 190 kts 266°
2026-05-04 01:55 33.42881 -111.83402 3769 ft 183 kts 266°
2026-05-04 01:56 33.42886 -111.84903 3520 ft 178 kts 266°
2026-05-04 01:56 33.42887 -111.86370 3276 ft 173 kts 264°
2026-05-04 01:56 33.42889 -111.87728 3016 ft 158 kts 264°
2026-05-04 01:56 33.42890 -111.89023 2877 ft 152 kts 263°
2026-05-04 01:57 33.42888 -111.90281 2674 ft 148 kts 263°
2026-05-04 01:57 33.42888 -111.91462 2494 ft 137 kts 264°
2026-05-04 01:57 33.42888 -111.92569 2325 ft 134 kts 263°
2026-05-04 01:57 33.42886 -111.93455 2189 ft 134 kts 265°
2026-05-04 01:58 33.42887 -111.94479 2051 ft 136 kts 265°
2026-05-04 01:58 33.42886 -111.95574 1885 ft 135 kts 266°
2026-05-04 01:58 33.42886 -111.96636 1725 ft 134 kts 265°
2026-05-04 01:58 33.42885 -111.97690 1569 ft 133 kts 267°
2026-05-04 01:59 33.42871 -111.98755 1417 ft 137 kts 267°
2026-05-04 01:59 33.42883 -111.99903 1218 ft 135 kts 269°
2026-05-04 01:59 33.42876 -112.00737 1137 ft 126 kts 268°
2026-05-04 01:59 33.42884 -112.01561 1134 ft 86 kts 270°
2026-05-04 02:00 33.42885 -112.02114 1129 ft 44 kts 270°
2026-05-04 02:00 33.42894 -112.02401 1128 ft 32 kts 279°
2026-05-04 02:00 33.42952 -112.02539 1132 ft 1 kts 330°
2026-05-04 02:00 33.42969 -112.02546 1134 ft 1 kts 353°
2026-05-04 02:01 33.43052 -112.02548 1130 ft 3 kts 359°
2026-05-04 02:01 33.43053 -112.02548 1130 ft 0 kts 359°
2026-05-04 02:02 33.43075 -112.02548 1119 ft 9 kts
2026-05-04 02:02 33.43161 -112.02542 1131 ft 11 kts 12°
2026-05-04 02:02 33.43210 -112.02508 1137 ft 5 kts 57°
2026-05-04 02:03 33.43216 -112.02463 1134 ft 11 kts 88°
2026-05-04 02:03 33.43215 -112.02334 1136 ft 16 kts 90°
2026-05-04 02:03 33.43216 -112.02206 1135 ft 14 kts 87°
2026-05-04 02:03 33.43254 -112.02152 1133 ft 6 kts 23°
2026-05-04 02:04 33.43286 -112.02114 1138 ft 8 kts 72°
2026-05-04 02:04 33.43289 -112.02025 1137 ft 11 kts 90°
2026-05-04 02:04 33.43289 -112.01934 1134 ft 11 kts 90°
2026-05-04 02:04 33.43289 -112.01848 1137 ft 10 kts 90°
2026-05-04 02:05 33.43289 -112.01720 1137 ft 21 kts 90°
2026-05-04 02:05 33.43290 -112.01499 1137 ft 31 kts 90°
2026-05-04 02:05 33.43288 -112.01210 1133 ft 29 kts 90°
2026-05-04 02:05 33.43311 -112.01112 1135 ft 9 kts 58°
2026-05-04 02:06 33.43338 -112.01095 1135 ft 8 kts
2026-05-04 02:06 33.43379 -112.01090 1135 ft 0 kts 360°